Volver al catálogo

COSMOS 1375 DEB

ActivoLEO
NORAD 16206·DEBRIS·🇷🇺 Russia

Lanzado Jun 6, 1982 desde Plesetsk Cosmodrome

Loading…

Próximos Pases (próximas 24 horas)

TLE

ActualizadoSource: Space-Track

Época: Sep 14, 2026, 06:35 UTC

1 16206U 82055H   26257.27438475  .00000035  00000-0  12265-3 0  9994
2 16206  65.8371 342.9783 0021789 328.4050  64.7696 13.74013969218611

Sigue COSMOS 1375 DEB en tiempo real con AllMySat

Download on the App Store